Date,TemperatureHighF,TemperatureAvgF,TemperatureLowF,DewpointHighF,DewpointAvgF,DewpointLowF,HumidityHigh,HumidityAvg,HumidityLow,PressureMaxIn,PressureMinIn,WindSpeedMaxMPH,WindSpeedAvgMPH,GustSpeedMaxMPH,PrecipitationSumIn
2013-8-1,91.4,80.8,70.5,61.9,58.2,53.1,68,47,37,30.00,29.85,8,0,8,0.00
2013-8-2,98.8,84.2,70.0,67.7,58.3,49.2,63,42,37,29.97,29.85,13,0,13,0.00
2013-8-3,99.1,84.6,70.0,68.3,58.2,49.2,58,42,37,30.00,29.88,15,0,15,0.00
2013-8-4,97.3,84.4,72.3,66.7,55.7,46.0,41,38,37,30.00,29.91,9,0,9,0.00
2013-8-5,97.2,81.5,68.2,66.6,53.3,43.0,42,38,37,30.00,29.88,13,0,13,0.00
2013-8-6,80.6,72.6,67.5,66.2,56.9,46.3,95,62,38,30.03,29.91,11,1,11,0.04
2013-8-7,91.6,77.1,64.2,67.5,58.1,46.3,100,57,37,30.03,29.88,8,1,8,0.04
2013-8-8,96.8,80.9,64.4,66.2,53.2,40.4,43,38,37,29.97,29.82,10,0,10,0.00
2013-8-9,98.2,81.5,62.6,67.5,53.5,38.6,41,38,37,29.94,29.85,15,1,15,0.00
2013-8-10,96.1,84.7,71.4,65.5,55.8,45.2,39,37,37,29.97,29.91,6,0,6,0.00
2013-8-11,97.9,82.7,67.3,67.2,54.5,42.2,40,38,37,30.00,29.85,11,1,11,0.00
2013-8-14,88.2,83.9,80.2,58.6,54.9,51.5,37,37,37,29.91,29.88,8,1,8,0.00
2013-8-15,97.7,85.5,71.6,66.9,57.6,50.0,64,39,37,30.00,29.91,11,1,11,0.00
2013-8-16,101.5,85.7,71.2,70.4,56.8,45.0,39,37,37,30.00,29.88,13,0,13,0.00
2013-8-17,98.4,80.7,70.2,67.7,55.3,45.7,68,43,37,30.06,29.88,14,1,14,0.00
2013-8-18,97.9,78.9,67.1,67.2,56.7,50.4,78,48,37,30.00,29.91,22,1,22,0.24
2013-8-19,96.4,80.1,68.9,65.8,55.8,46.7,62,44,37,30.00,29.88,20,1,20,0.00
2013-8-20,99.3,82.5,64.6,68.5,57.7,46.8,69,44,37,29.97,29.82,13,1,13,0.12
2013-8-21,82.0,76.7,71.4,62.1,57.1,51.3,63,51,40,30.00,29.88,11,1,11,0.00
2013-8-22,92.8,78.7,68.7,64.4,58.5,52.8,85,52,37,30.00,29.85,10,1,10,0.55
2013-8-23,88.3,74.8,64.8,62.8,56.4,47.7,89,57,37,29.94,29.79,6,0,6,0.00
2013-8-24,83.8,73.2,67.1,68.0,56.2,46.7,100,57,37,30.03,29.88,8,1,10,0.04
2013-8-25,72.0,69.1,66.0,68.7,63.6,55.6,100,84,57,30.06,29.94,7,0,7,0.79
2013-8-26,87.4,74.0,65.8,68.9,64.8,59.8,100,76,43,30.03,29.88,10,1,10,0.08
2013-8-27,95.7,77.5,68.5,66.8,62.1,57.0,83,62,37,29.97,29.82,13,1,13,0.08
2013-8-28,94.3,79.9,66.2,64.0,59.3,52.5,83,52,37,29.97,29.85,13,1,13,0.00
2013-8-29,92.5,79.3,68.4,68.6,60.2,56.0,98,54,37,30.06,29.94,11,1,11,0.04
2013-8-31,69.1,68.4,67.5,66.3,65.1,64.0,96,89,84,29.97,29.97,0,0,0,0.04